PBO Station Position Time Series. Reference Frame : NAM14
Format Version,1.1.0
4-character ID,P453
Station name,WilburLevaWA2005
Begin Date, 2005-10-02
End Date, 2019-10-07
Release Date, 2019-10-08
Reference position, 47.7591327031 North Latitude, -118.7454570363 East Longitude, 644.23097 meters elevation,
Date, North (mm), East (mm), Vertical (mm), North Std. Deviation (mm), East Std. Deviation (mm),              Vertical Std. Deviation (mm), Quality,
2005-10-02,0.00, 0.00, 0.00, 2.31, 1.57, 7.10, repro,
2005-10-03,1.71, 0.14, -5.21, 2.31, 1.59, 7.15, repro,
2005-10-04,0.77, 0.70, -9.86, 2.50, 1.70, 7.86, repro,
2005-10-05,2.69, 0.74, -7.59, 2.59, 1.73, 8.11, repro,
2005-10-06,1.50, 0.36, -2.04, 2.63, 1.78, 8.19, repro,
2005-10-07,0.78, 0.12, -1.60, 2.38, 1.61, 7.35, repro,
2005-10-08,-0.21, 0.51, 2.97, 2.52, 1.71, 7.88, repro,
2005-10-09,0.48, 0.83, -1.41, 2.62, 1.79, 8.32, repro,
2005-10-10,0.25, 1.13, -3.56, 2.75, 1.85, 8.40, repro,
2005-10-11,1.34, 0.84, -3.68, 2.77, 1.90, 8.65, repro,
2005-10-12,-0.77, 0.74, -0.08, 2.72, 1.84, 8.34, repro,
2005-10-13,1.32, 0.66, -3.02, 2.68, 1.85, 8.33, repro,
2005-10-14,0.93, 0.57, -0.79, 2.63, 1.79, 8.15, repro,
2005-10-15,3.00, 1.38, 11.20, 4.18, 2.62, 12.37, repro,
2005-10-16,0.90, 1.06, -1.37, 2.61, 1.77, 7.95, repro,
2005-10-17,-0.33, 0.92, -2.23, 2.49, 1.70, 7.78, repro,
2005-10-18,-0.59, 1.28, 7.38, 2.98, 2.07, 9.09, repro,
2005-10-19,1.88, 0.69, -2.05, 2.38, 1.62, 7.18, repro,
2005-10-20,0.33, 0.92, -4.06, 2.46, 1.64, 7.46, repro,
2005-10-21,1.56, 1.08, -7.14, 2.62, 1.83, 8.44, repro,
2005-10-22,1.64, 0.46, -3.94, 2.57, 1.73, 7.83, repro,
2005-10-23,2.41, 1.69, -3.21, 2.65, 1.83, 8.20, repro,
2005-10-24,0.50, 2.10, -8.30, 2.60, 1.78, 7.91, repro,
2005-10-25,1.64, 0.78, 1.44, 2.68, 1.85, 8.27, repro,
2005-10-26,1.47, 1.71, 0.14, 2.43, 1.68, 7.46, repro,
2005-10-27,1.61, 0.60, -7.15, 2.31, 1.59, 7.25, repro,
2005-10-28,1.17, 1.60, 1.98, 2.29, 1.55, 7.04, repro,
2005-10-29,1.52, 0.63, 1.73, 2.30, 1.60, 7.25, repro,
2005-10-30,2.09, 1.29, -5.97, 2.32, 1.60, 7.18, repro,
2005-10-31,3.34, 1.37, -6.88, 2.42, 1.68, 7.49, repro,
2005-11-01,2.31, -0.24, -1.47, 2.50, 1.75, 7.77, repro,
2005-11-02,2.48, 0.35, -1.77, 2.47, 1.79, 7.83, repro,
2005-11-03,1.59, 0.07, -1.71, 2.38, 1.67, 7.38, repro,
2005-11-04,1.69, 1.51, 4.98, 2.39, 1.70, 7.52, repro,
2005-11-05,2.20, 1.48, -1.49, 2.44, 1.74, 7.58, repro,
2005-11-06,3.47, 0.55, -1.38, 2.45, 1.74, 7.54, repro,
2005-11-07,1.81, 0.88, -1.22, 2.47, 1.74, 7.67, repro,
2005-11-08,1.85, 0.61, -7.70, 2.42, 1.71, 7.59, repro,
2005-11-09,0.98, -0.26, -4.65, 2.56, 1.81, 7.96, repro,
2005-11-10,1.12, 0.97, -1.22, 2.59, 1.83, 8.06, repro,
2005-11-11,1.81, 0.37, -0.49, 2.56, 1.82, 7.87, repro,
2005-11-12,2.48, 1.54, 0.24, 2.34, 1.65, 7.24, repro,
2005-11-13,1.31, 1.85, -4.05, 2.49, 1.77, 7.69, repro,
2005-11-14,1.09, -1.10, -10.52, 2.34, 1.62, 7.23, repro,
2005-11-15,1.87, 0.74, -15.32, 2.31, 1.60, 7.22, repro,
2005-11-16,3.55, 0.88, -18.77, 2.35, 1.64, 7.38, repro,
2005-11-17,2.23, 1.00, -15.69, 2.28, 1.56, 7.04, repro,
2005-11-18,0.96, 0.60, -16.66, 2.28, 1.56, 7.07, repro,
2005-11-19,1.52, 0.78, -8.38, 2.30, 1.57, 7.14, repro,
2005-11-20,2.05, 0.25, -13.35, 2.31, 1.58, 7.20, repro,
2005-11-21,1.77, 0.92, -14.62, 2.38, 1.62, 7.40, repro,
2005-11-22,2.08, 1.65, -10.78, 2.38, 1.66, 7.44, repro,
2005-11-23,1.84, 0.10, -6.60, 2.31, 1.60, 7.26, repro,
2005-11-24,0.93, 0.88, -6.78, 2.34, 1.62, 7.30, repro,
2005-11-25,2.23, 0.03, -4.62, 2.33, 1.60, 7.23, repro,
2005-11-26,2.22, 1.61, -2.76, 2.40, 1.68, 7.55, repro,
2005-11-27,1.01, 0.14, -7.36, 2.29, 1.58, 7.10, repro,
2005-11-28,2.13, 0.73, -8.93, 2.36, 1.62, 7.37, repro,
2005-11-29,1.37, 0.62, -4.10, 2.37, 1.62, 7.33, repro,
2005-11-30,2.78, 0.13, -9.77, 2.37, 1.62, 7.34, repro,
2005-12-01,2.57, 0.88, -8.51, 2.29, 1.57, 7.10, repro,
2005-12-02,1.77, 1.81, -8.92, 2.29, 1.56, 7.08, repro,
2005-12-03,1.40, 0.81, -5.34, 2.29, 1.58, 7.15, repro,
2005-12-04,1.74, 0.75, -14.10, 2.31, 1.59, 7.17, repro,
2005-12-05,0.95, 2.12, -14.57, 3.32, 2.30, 10.22, repro,
2005-12-06,-1.53, -0.72, -27.73, 4.56, 3.24, 15.90, repro,
2005-12-07,-0.33, 0.94, -16.71, 2.63, 1.89, 8.53, repro,
2005-12-08,0.17, 1.64, -12.90, 2.63, 1.85, 8.48, repro,
2005-12-09,0.30, 1.13, -9.54, 2.37, 1.62, 7.41, repro,
2005-12-10,0.09, 1.39, -12.00, 2.35, 1.62, 7.32, repro,
2005-12-11,1.07, 1.11, -11.58, 2.35, 1.61, 7.26, repro,
2005-12-12,1.00, 0.84, -11.49, 2.27, 1.57, 7.09, repro,
2005-12-13,1.72, 1.17, -9.29, 2.32, 1.58, 7.20, repro,
2005-12-14,1.08, 0.95, -18.94, 2.31, 1.58, 7.15, repro,
2005-12-15,-0.96, 1.02, -14.73, 3.70, 2.62, 13.33, repro,
2005-12-16,0.24, 1.55, -4.23, 4.94, 3.35, 14.56, repro,
2005-12-17,-0.00, 0.31, -11.37, 3.79, 2.76, 13.23, repro,
2005-12-18,1.31, 1.27, -15.38, 2.51, 1.80, 7.95, repro,
2005-12-19,0.87, 0.08, -10.82, 2.58, 1.77, 7.96, repro,
2005-12-20,-3.74, 0.16, -3.33, 6.18, 4.86, 20.01, repro,
2005-12-25,1.58, 0.36, 2.50, 4.64, 3.54, 18.64, repro,
2005-12-26,0.92, 0.56, -4.07, 7.73, 5.40, 24.96, repro,
2006-01-01,-1.54, -0.71, -12.60, 7.39, 4.68, 27.13, repro,
2006-01-04,2.81, 1.26, -21.59, 8.67, 6.37, 32.05, repro,
2006-01-05,4.44, -29.73, -8.30, 68.72, 75.35, 226.89, repro,
2006-01-06,1.63, -0.41, -15.05, 2.54, 1.82, 8.17, repro,
2006-01-07,1.49, -0.47, -5.84, 2.39, 1.69, 7.38, repro,
2006-01-08,1.56, 0.71, -8.48, 2.46, 1.76, 7.89, repro,
2006-01-09,1.61, 1.29, -3.73, 2.52, 1.80, 7.95, repro,
2006-01-10,2.04, 0.40, -6.00, 2.44, 1.73, 7.76, repro,
2006-01-11,0.74, 1.01, -5.66, 2.45, 1.72, 7.75, repro,
2006-01-12,2.12, 0.44, -13.81, 2.39, 1.70, 7.38, repro,
2006-01-13,1.62, 2.26, -10.73, 2.56, 1.77, 8.31, repro,
2006-01-14,3.68, 0.97, -15.62, 2.33, 1.62, 7.18, repro,
2006-01-15,1.62, -0.22, -11.44, 2.30, 1.58, 7.01, repro,
2006-01-16,1.92, 0.17, -13.96, 2.44, 1.76, 7.66, repro,
2006-01-17,1.59, 1.94, -12.28, 2.35, 1.64, 7.18, repro,
2006-01-18,1.85, 0.63, -7.26, 2.33, 1.59, 7.14, repro,
2006-01-19,1.29, 1.25, -11.30, 2.35, 1.62, 7.31, repro,
2006-01-20,1.41, 1.21, -17.15, 2.34, 1.59, 7.18, repro,
2006-01-21,1.53, 0.55, -12.49, 2.32, 1.59, 7.14, repro,
2006-01-22,0.86, 0.78, -18.38, 2.29, 1.57, 7.01, repro,
2006-01-23,0.35, 0.11, -12.54, 2.29, 1.56, 7.03, repro,
2006-01-24,1.48, 0.93, -21.33, 2.36, 1.61, 7.20, repro,
2006-01-25,1.62, 0.57, -17.27, 2.24, 1.53, 6.88, repro,
2006-01-26,1.11, 0.05, -16.18, 2.23, 1.52, 6.81, repro,
2006-01-27,2.04, 1.49, -9.77, 2.23, 1.53, 6.86, repro,
2006-01-28,1.20, 1.23, -13.26, 2.24, 1.53, 6.92, repro,
2006-01-29,0.96, 1.36, -13.83, 2.25, 1.54, 6.97, repro,
2006-01-30,1.61, 2.48, -10.13, 2.24, 1.53, 6.94, repro,
2006-01-31,0.14, 0.61, -14.78, 2.24, 1.53, 6.93, repro,
2006-02-01,1.32, 1.64, -8.40, 2.23, 1.51, 6.85, repro,
2006-02-02,0.95, 0.04, -9.57, 2.23, 1.52, 6.90, repro,
2006-02-03,-0.16, 0.19, -8.02, 2.24, 1.52, 6.94, repro,
2006-02-04,1.19, 0.30, -12.22, 2.25, 1.53, 7.01, repro,
2006-02-05,1.03, 0.75, -19.23, 2.25, 1.53, 7.01, repro,
2006-02-06,0.71, 1.39, -20.12, 2.25, 1.52, 6.96, repro,
2006-02-07,0.10, 0.05, -20.73, 2.24, 1.52, 6.90, repro,
2006-02-08,0.63, 0.16, -22.48, 2.24, 1.52, 6.93, repro,
2006-02-09,1.03, 0.27, -22.63, 2.31, 1.53, 6.99, repro,
2006-02-10,1.70, 0.82, -25.93, 2.41, 1.57, 7.16, repro,
2006-02-11,1.39, 0.47, -29.25, 2.27, 1.53, 7.06, repro,
2006-02-12,1.50, 0.62, -23.97, 2.25, 1.51, 6.95, repro,
2006-02-13,1.19, -0.09, -19.98, 2.25, 1.53, 7.00, repro,
2006-02-14,1.02, 0.62, -13.92, 2.24, 1.52, 6.97, repro,
2006-02-15,1.64, 0.64, -18.74, 2.25, 1.52, 6.97, repro,
2006-02-16,2.51, 0.69, -22.35, 2.26, 1.53, 7.02, repro,
2006-02-17,1.40, 0.41, -22.75, 2.27, 1.52, 7.00, repro,
2006-02-18,0.35, 0.32, -19.62, 2.26, 1.52, 6.99, repro,
2006-02-19,1.50, 0.79, -17.04, 2.28, 1.54, 7.03, repro,
2006-02-20,1.10, -0.07, -11.90, 2.26, 1.53, 6.99, repro,
2006-02-21,0.65, 0.74, -10.43, 2.24, 1.53, 6.93, repro,
2006-02-22,0.26, 0.35, -8.48, 2.28, 1.54, 7.05, repro,
2006-02-23,0.23, -0.11, -10.87, 2.26, 1.53, 6.96, repro,
2006-02-24,2.39, 0.26, -16.86, 2.24, 1.53, 6.94, repro,
2006-02-25,1.18, 0.71, -20.86, 2.24, 1.53, 6.95, repro,
2006-02-26,2.14, 0.81, -14.06, 2.24, 1.53, 6.95, repro,
2006-02-27,1.76, 0.80, -6.74, 2.24, 1.52, 6.90, repro,
2006-02-28,2.01, 1.17, -5.11, 2.28, 1.55, 7.03, repro,
2006-03-01,0.48, 1.37, -13.18, 2.35, 1.59, 7.27, repro,
2006-03-02,0.87, 0.65, -12.03, 2.25, 1.54, 6.96, repro,
2006-03-03,2.19, 0.27, -12.12, 2.32, 1.55, 7.14, repro,
2006-03-04,2.12, 0.61, -14.72, 2.23, 1.53, 6.91, repro,
2006-03-05,1.44, 0.98, -15.41, 2.23, 1.53, 6.93, repro,
2006-03-06,0.44, -0.30, -15.70, 2.25, 1.53, 6.96, repro,
2006-03-07,1.61, -0.39, -10.80, 2.23, 1.53, 6.96, repro,
2006-03-08,2.32, 1.04, -13.22, 2.24, 1.54, 6.97, repro,
2006-03-09,1.57, 0.68, -3.21, 2.23, 1.54, 6.93, repro,
2006-03-10,1.87, -0.35, -6.69, 2.23, 1.53, 6.89, repro,
2006-03-11,2.44, 0.04, -10.80, 2.27, 1.55, 7.06, repro,
2006-03-12,2.10, 0.40, -14.67, 2.27, 1.54, 7.04, repro,
2006-03-13,1.41, 0.09, -13.61, 2.28, 1.57, 7.17, repro,
2006-03-14,2.43, 0.53, -9.10, 2.29, 1.57, 7.16, repro,
2006-03-15,1.70, 0.71, -12.73, 2.28, 1.56, 7.11, repro,
2006-03-16,1.47, 1.53, -18.43, 2.36, 1.59, 7.32, repro,
2006-03-17,1.55, 1.10, -18.91, 2.36, 1.59, 7.38, repro,
2006-03-18,2.39, 0.72, -17.41, 2.28, 1.56, 7.16, repro,
2006-03-19,4.34, -1.12, -23.12, 2.29, 1.57, 7.20, repro,
2006-03-20,2.59, 0.06, -13.37, 2.28, 1.58, 7.17, repro,
2006-03-21,1.96, 0.54, -13.34, 2.28, 1.57, 7.16, repro,
2006-03-22,1.43, 0.79, -19.22, 2.30, 1.58, 7.16, repro,
2006-03-23,1.99, 0.59, -21.62, 2.34, 1.59, 7.20, repro,
2006-03-24,1.84, 0.52, -14.28, 2.33, 1.60, 7.19, repro,
2006-03-25,2.11, 0.13, -4.58, 2.33, 1.60, 7.19, repro,
2006-03-26,1.85, -0.97, -11.75, 2.34, 1.60, 7.24, repro,
2006-03-27,0.84, 0.48, -14.78, 2.35, 1.61, 7.33, repro,
2006-03-28,1.51, 0.76, -9.84, 2.26, 1.57, 7.07, repro,
2006-03-29,1.50, 0.16, -12.92, 2.19, 1.55, 6.95, repro,
2006-03-30,1.57, 0.00, -9.69, 2.19, 1.54, 6.89, repro,
2006-03-31,1.35, -0.19, -9.18, 2.21, 1.54, 6.95, repro,
2006-04-01,1.07, 0.02, -11.44, 2.22, 1.56, 7.02, repro,
2006-04-02,1.35, 1.04, -14.97, 2.24, 1.56, 7.05, repro,
2006-04-03,1.02, 0.77, -13.38, 2.21, 1.55, 6.95, repro,
2006-04-04,2.03, -0.18, -10.50, 2.21, 1.54, 6.94, repro,
2006-04-05,1.53, -0.28, -9.36, 2.19, 1.54, 6.91, repro,
2006-04-06,1.57, -0.23, -8.17, 2.23, 1.58, 7.13, repro,
2006-04-07,0.75, 1.02, -11.64, 2.35, 1.61, 7.43, repro,
2006-04-08,0.38, -0.51, -9.61, 2.37, 1.59, 7.38, repro,
2006-04-09,0.76, -0.07, -11.20, 2.21, 1.55, 6.97, repro,
2006-04-10,0.31, -0.49, -8.38, 2.20, 1.54, 6.92, repro,
2006-04-11,1.40, -0.33, -5.74, 2.25, 1.57, 7.16, repro,
2006-04-12,2.33, 0.06, -9.67, 2.32, 1.64, 7.35, repro,
2006-04-13,-0.12, -0.11, -8.03, 2.23, 1.55, 7.07, repro,
2006-04-14,0.58, 0.96, -5.95, 2.21, 1.55, 7.01, repro,
2006-04-15,1.59, -0.51, 1.27, 2.26, 1.58, 7.14, repro,
2006-04-16,2.41, -0.23, -2.51, 2.19, 1.54, 6.91, repro,
2006-04-17,1.16, -0.05, -6.89, 2.19, 1.54, 6.95, repro,
2006-04-18,1.15, -0.10, -13.52, 2.21, 1.55, 7.05, repro,
2006-04-19,0.83, 0.52, -12.96, 2.23, 1.55, 7.05, repro,
2006-04-20,1.00, 0.43, -9.69, 2.26, 1.58, 7.13, repro,
2006-04-21,3.05, 0.38, -8.18, 3.03, 2.19, 9.52, repro,
2006-04-22,3.09, 1.14, -12.88, 2.73, 1.99, 9.11, repro,
2006-04-23,2.93, 0.08, -15.27, 2.41, 1.75, 7.96, repro,
2006-04-24,2.17, 0.46, -10.42, 2.48, 1.76, 8.05, repro,
2006-04-25,1.16, 0.75, -11.44, 2.25, 1.59, 7.14, repro,
2006-04-26,3.70, 0.04, -6.31, 2.97, 2.18, 9.69, repro,
2006-04-27,1.52, -0.97, -12.97, 2.39, 1.66, 7.53, repro,
2006-04-28,2.53, 0.73, -12.52, 2.98, 2.03, 9.19, repro,
2006-04-29,2.40, 2.17, -9.39, 3.14, 2.14, 9.62, repro,
2006-04-30,5.63, -1.15, -8.18, 3.93, 2.68, 12.13, repro,
2006-05-01,1.87, -1.09, -13.14, 4.11, 2.86, 12.98, repro,
2006-05-02,2.65, -1.08, -13.94, 2.52, 1.85, 8.44, repro,
2006-05-03,1.94, 0.19, -10.56, 2.96, 2.07, 9.24, repro,
2006-05-04,1.10, 1.18, -13.27, 3.02, 2.09, 9.34, repro,
2006-05-05,0.66, 2.29, -3.66, 3.22, 2.16, 9.77, repro,
2006-05-06,0.93, 0.29, -8.27, 3.28, 2.30, 10.06, repro,
2006-05-07,4.72, 0.59, -9.23, 7.35, 4.31, 20.92, repro,
2006-05-08,2.68, -0.31, -10.42, 3.49, 2.46, 10.75, repro,
2006-05-09,2.53, 0.02, -11.00, 2.95, 1.97, 8.84, repro,
2006-05-10,1.12, -0.18, -14.06, 3.03, 2.06, 9.29, repro,
2006-05-11,2.98, 0.73, -7.22, 3.24, 2.24, 9.99, repro,
2006-05-12,2.00, 1.85, -8.29, 3.39, 2.35, 10.42, repro,
2006-05-13,4.03, 0.76, -14.63, 3.38, 2.38, 10.37, repro,
2006-05-14,3.36, 0.79, -15.16, 3.09, 2.10, 9.37, repro,
2006-05-15,3.51, 1.35, -15.48, 3.01, 2.03, 9.01, repro,
2006-05-16,1.60, 0.49, -12.53, 3.07, 2.12, 9.50, repro,
2006-05-17,2.14, -0.30, -5.47, 2.89, 1.97, 8.83, repro,
2006-05-18,1.55, -0.07, 3.68, 2.97, 1.94, 8.65, repro,
2006-05-19,4.09, 1.74, -8.62, 2.65, 1.76, 7.88, repro,
2006-05-20,5.09, 3.75, 6.73, 5.69, 3.68, 15.95, repro,
2006-05-21,1.92, -1.50, -12.50, 5.47, 3.70, 16.96, repro,
2006-05-22,2.58, 17.38, -29.25, 23.05, 24.60, 52.93, repro,
2006-05-23,2.75, 4.41, -11.21, 8.39, 4.13, 19.84, repro,
2006-05-24,0.62, 0.30, 1.13, 2.43, 1.68, 7.79, repro,
2006-05-25,1.19, 0.12, -11.17, 2.41, 1.62, 7.42, repro,
2006-05-26,1.65, 0.94, -6.04, 2.35, 1.59, 7.31, repro,
2006-05-27,2.34, 1.25, -4.21, 2.31, 1.57, 7.20, repro,
2006-05-28,3.38, -0.25, -11.03, 2.55, 1.71, 7.75, repro,
2006-05-29,1.04, 0.80, -9.69, 2.29, 1.57, 7.12, repro,
2006-05-30,3.65, 0.95, -16.43, 2.90, 1.94, 8.49, repro,
2006-05-31,2.95, 1.22, -13.80, 2.94, 1.94, 8.56, repro,
2006-06-01,1.55, 0.84, -14.08, 2.35, 1.61, 7.34, repro,
2006-06-02,2.75, 0.63, -13.02, 2.76, 1.81, 8.08, repro,
2006-06-03,2.36, -0.38, -2.15, 2.99, 1.97, 8.77, repro,
2006-06-04,1.31, -0.07, -7.85, 2.86, 1.90, 8.32, repro,
2006-06-05,2.68, 1.48, -4.54, 2.78, 1.86, 8.38, repro,
2006-06-06,3.02, -0.23, -14.34, 2.50, 1.71, 7.67, repro,
2006-06-07,0.88, 0.72, -13.85, 2.52, 1.70, 7.65, repro,
2006-06-08,1.64, 0.33, -11.79, 2.38, 1.62, 7.40, repro,
2006-06-09,1.80, 2.19, -9.45, 3.16, 2.05, 9.02, repro,
2006-06-10,6.46, 0.38, -12.94, 3.12, 2.03, 8.88, repro,
2006-06-11,-0.74, 2.86, -13.46, 2.93, 2.00, 8.71, repro,
2006-06-12,1.99, -0.33, -11.98, 2.87, 1.94, 8.57, repro,
2006-06-13,2.71, 0.18, -9.10, 2.72, 1.79, 7.90, repro,
2006-06-14,0.94, 0.11, -6.08, 2.29, 1.55, 7.06, repro,
2006-06-15,2.80, 0.63, -6.38, 2.67, 1.78, 7.94, repro,
2006-06-16,1.90, 0.33, -7.65, 2.97, 1.99, 8.68, repro,
2006-06-17,-0.18, 1.39, -4.66, 2.90, 1.97, 8.55, repro,
2006-06-18,-0.40, 2.76, -14.89, 3.15, 2.11, 9.12, repro,
2006-06-19,0.68, 0.82, -5.85, 3.02, 2.03, 8.86, repro,
2006-06-20,1.51, -0.58, -12.08, 3.19, 2.10, 9.13, repro,
2006-06-21,2.19, -0.27, -7.13, 3.18, 2.14, 9.15, repro,
2006-06-22,-0.43, 0.04, -15.65, 3.12, 2.09, 9.08, repro,
2006-06-23,2.99, 2.26, -19.52, 3.09, 2.06, 8.90, repro,
2006-06-24,2.97, 0.85, -20.67, 3.02, 2.00, 8.70, repro,
2006-06-25,2.92, 1.20, -21.29, 2.88, 1.92, 8.39, repro,
2006-06-26,3.14, -0.79, -15.18, 2.45, 1.69, 7.72, repro,
2006-06-27,1.71, 0.65, -6.75, 2.63, 1.84, 8.07, repro,
2006-06-28,1.20, 1.19, -3.80, 2.63, 1.83, 8.11, repro,
2006-06-29,0.49, 0.47, -6.05, 2.92, 1.99, 8.67, repro,
2006-06-30,1.62, 0.68, -5.04, 2.88, 1.91, 8.44, repro,
2006-07-01,2.16, 0.48, -5.58, 2.56, 1.75, 7.83, repro,
2006-07-02,1.88, 1.13, -0.50, 2.76, 1.88, 8.25, repro,
2006-07-03,0.11, 1.46, -8.80, 2.35, 1.65, 7.38, repro,
2006-07-04,0.29, -0.10, -6.74, 2.31, 1.62, 7.30, repro,
2006-07-05,0.33, 1.47, -3.82, 2.43, 1.70, 7.67, repro,
2006-07-06,2.38, 0.70, -2.50, 2.27, 1.56, 7.14, repro,
2006-07-07,4.23, 1.29, -16.69, 2.86, 1.92, 8.45, repro,
2006-07-08,3.49, 1.00, -18.60, 2.84, 1.93, 8.47, repro,
2006-07-09,3.10, 0.56, -9.79, 2.64, 1.81, 8.11, repro,
2006-07-10,1.15, 0.35, -9.77, 2.30, 1.59, 7.32, repro,
2006-07-11,2.29, 1.60, -8.86, 2.71, 1.85, 8.43, repro,
2006-07-12,2.86, 1.70, -9.93, 2.90, 1.95, 8.64, repro,
2006-07-13,2.40, 3.49, 3.43, 2.85, 1.92, 8.55, repro,
2006-07-14,3.38, 2.03, -9.03, 2.83, 1.91, 8.56, repro,
2006-07-15,2.42, 0.90, -5.33, 2.79, 1.87, 8.47, repro,
2006-07-16,-0.52, 1.02, -5.71, 2.66, 1.79, 8.17, repro,
2006-07-17,1.51, 0.59, -11.68, 2.82, 1.92, 8.55, repro,
2006-07-18,-0.97, 0.85, -2.18, 2.92, 1.97, 8.64, repro,
2006-07-19,0.41, 2.83, -5.34, 2.87, 1.92, 8.50, repro,
2006-07-20,0.54, 2.31, -8.62, 2.71, 1.83, 8.27, repro,
2006-07-21,0.50, 2.16, -8.91, 2.21, 1.53, 6.93, repro,
2006-07-22,0.65, 0.94, -8.73, 2.21, 1.53, 6.95, repro,
2006-07-23,2.25, 0.66, -4.10, 2.21, 1.53, 6.94, repro,
2006-07-24,0.87, 0.94, 2.90, 2.21, 1.54, 6.96, repro,
2006-07-25,0.57, 1.40, 1.02, 2.43, 1.67, 7.67, repro,
2006-07-26,-0.17, 1.24, -4.55, 2.56, 1.75, 8.04, repro,
2006-07-27,0.09, 0.63, -5.31, 2.52, 1.74, 7.97, repro,
2006-07-28,-0.39, 0.85, -5.53, 2.55, 1.76, 8.10, repro,
2006-07-29,0.93, 0.83, -0.27, 2.86, 1.93, 8.76, repro,
2006-07-30,-0.56, -0.33, 3.83, 2.93, 1.98, 9.05, repro,
2006-07-31,0.06, -0.11, 1.03, 3.23, 2.12, 9.31, repro,
2006-08-01,1.06, -0.83, 2.33, 3.18, 2.08, 9.22, repro,
2006-08-02,1.25, -0.63, -6.41, 3.11, 2.07, 9.29, repro,
2006-08-03,0.83, 0.01, -3.87, 3.13, 2.09, 9.40, repro,
2006-08-04,1.55, 0.54, -8.70, 3.20, 2.09, 9.60, repro,
2006-08-05,-0.39, 0.03, -3.49, 2.79, 1.89, 8.75, repro,
2006-08-06,1.49, -0.39, -4.23, 2.99, 2.01, 9.24, repro,
2006-08-07,0.46, 0.85, -2.02, 2.83, 1.92, 8.67, repro,
2006-08-08,2.18, 0.04, -4.91, 2.20, 1.54, 6.99, repro,
2006-08-09,0.49, 1.15, -5.17, 2.75, 1.88, 8.68, repro,
2006-08-10,1.27, -0.68, 0.19, 2.75, 1.85, 8.39, repro,
2006-08-11,-2.11, -0.62, -6.83, 2.85, 1.92, 8.83, repro,
2006-08-12,-0.16, -1.77, 0.39, 3.07, 2.03, 9.33, repro,
2006-08-13,-0.10, -1.47, -2.52, 2.96, 2.01, 9.12, repro,
2006-08-14,-0.30, -0.31, -9.65, 2.93, 1.96, 9.04, repro,
2006-08-15,1.36, -2.01, -1.76, 2.90, 1.96, 8.88, repro,
2006-08-16,1.54, -0.30, -15.55, 3.05, 2.05, 9.36, repro,
2006-08-17,1.79, 0.95, -3.76, 2.77, 1.89, 8.77, repro,
2006-08-18,-0.33, 1.38, -6.25, 2.99, 2.05, 9.28, repro,
2006-08-19,0.42, 1.21, -3.84, 2.91, 1.96, 8.96, repro,
2006-08-20,1.53, 0.49, -0.37, 2.87, 1.93, 8.77, repro,
2006-08-21,2.17, 1.17, -4.86, 2.89, 1.94, 8.87, repro,
2006-08-22,1.41, 0.70, 0.67, 2.21, 1.56, 7.01, repro,
2006-08-23,-0.12, 2.56, 4.24, 2.87, 1.93, 8.94, repro,
2006-08-24,-0.29, 1.00, -0.98, 2.95, 2.00, 9.13, repro,
2006-08-25,-0.42, 1.93, 8.89, 2.83, 1.93, 8.88, repro,
2006-08-26,-0.14, 1.10, -2.32, 3.07, 2.09, 9.50, repro,
2006-08-27,0.48, 0.43, -1.78, 2.97, 2.06, 9.35, repro,
2006-08-28,0.11, 0.68, -3.88, 2.96, 2.05, 9.30, repro,
2006-08-29,1.46, 1.20, -0.39, 2.60, 1.85, 8.47, repro,
2006-08-30,1.05, 0.16, -3.90, 3.59, 2.42, 10.84, repro,
2006-08-31,0.71, 1.12, -1.43, 3.75, 2.50, 11.08, repro,
2006-09-01,1.52, 0.09, -7.11, 3.58, 2.36, 10.68, repro,
2006-09-02,0.54, 1.30, -2.16, 3.33, 2.25, 10.35, repro,
2006-09-03,1.97, 1.16, -1.97, 3.15, 2.16, 9.84, repro,
2006-09-04,2.19, 0.42, -0.56, 2.43, 1.70, 7.80, repro,
2006-09-05,1.06, 0.66, -11.84, 2.91, 2.03, 9.42, repro,
2006-09-06,2.24, 1.10, -3.05, 2.90, 2.01, 9.35, repro,
2006-09-07,0.56, 0.81, 1.74, 3.05, 2.17, 10.02, repro,
2006-09-08,2.27, 1.25, -0.17, 3.10, 2.18, 9.83, repro,
2006-09-09,0.33, 0.15, -0.56, 3.03, 2.12, 9.87, repro,
2006-09-10,0.91, -0.05, 2.86, 3.50, 2.43, 11.11, repro,
2006-09-11,1.34, 0.17, -2.84, 3.38, 2.31, 10.62, repro,
2006-09-12,2.85, -0.60, 0.91, 3.20, 2.20, 9.92, repro,
2006-09-13,1.82, -0.86, 7.07, 3.23, 2.26, 10.23, repro,
2006-09-14,0.90, -0.80, 7.70, 4.06, 2.93, 13.06, repro,
2006-09-15,2.10, -0.96, 16.14, 4.58, 3.12, 13.03, repro,
2006-09-16,3.42, 1.65, 3.63, 4.07, 2.79, 11.87, repro,
2006-09-17,1.62, 0.82, 4.88, 2.99, 2.02, 9.15, repro,
2006-09-18,1.16, -0.31, 3.14, 3.74, 2.61, 11.56, repro,
2006-09-19,1.97, 1.11, 14.96, 3.64, 2.51, 11.31, repro,
2006-09-20,3.15, 1.30, 13.73, 3.83, 2.61, 12.03, repro,
2006-09-21,0.56, -1.02, 15.70, 4.30, 3.07, 12.66, repro,
2006-09-22,3.27, 0.23, 9.50, 3.81, 2.58, 11.38, repro,
2006-09-23,2.89, 1.36, 5.70, 3.48, 2.38, 10.71, repro,
2006-09-24,-0.28, -0.07, 1.13, 3.50, 2.42, 10.70, repro,
2006-09-25,0.66, 0.45, 6.55, 3.47, 2.39, 10.95, repro,
2006-09-26,0.18, 0.17, -0.15, 3.41, 2.39, 10.84, repro,
2006-09-27,1.61, 1.06, 1.36, 3.14, 2.20, 9.83, repro,
2006-09-28,1.01, 0.14, -2.19, 3.29, 2.30, 10.23, repro,
2006-09-29,0.59, 1.02, 8.23, 3.28, 2.30, 10.21, repro,
2006-09-30,0.47, 0.56, 8.27, 3.52, 2.45, 10.93, repro,
2006-10-01,-0.17, -1.81, 2.14, 3.64, 2.55, 11.37, repro,
2006-10-02,-0.32, 1.22, -3.20, 4.18, 3.22, 13.39, repro,
2006-10-03,0.79, 0.51, -1.33, 4.08, 3.06, 12.74, repro,
2006-10-04,-0.64, 1.59, 3.32, 3.76, 2.66, 11.85, repro,
2006-10-05,0.41, -0.05, -1.96, 3.59, 2.55, 11.41, repro,
2006-10-06,2.16, -1.01, -4.23, 4.51, 3.36, 15.05, repro,
2006-10-07,-1.98, 0.60, 7.17, 4.61, 3.34, 15.26, repro,
2006-10-08,5.69, 44.13, -23.97, 40.97, 216.31, 243.03, repro,
2006-10-09,-0.60, 0.72, -9.49, 3.31, 2.25, 9.78, repro,
2006-10-10,3.10, 1.88, -5.72, 2.61, 1.89, 8.52, repro,
2006-10-11,0.86, 2.06, -3.06, 2.80, 1.98, 9.02, repro,
2006-10-12,1.87, 0.86, -1.54, 3.29, 2.18, 9.98, repro,
2006-10-13,1.09, 0.79, 6.61, 3.93, 2.82, 12.94, repro,
2006-10-14,1.58, 1.57, -2.59, 3.57, 2.46, 11.62, repro,
2006-10-15,0.35, 3.35, 13.80, 9.75, 6.66, 34.20, repro,
2006-10-19,-4.41, -3.67, -2.55, 4.59, 3.38, 15.18, repro,
2006-10-20,7.16, 133.06, 2.71, 13.00, 8.24, 37.82, repro,
2006-10-21,-1.14, 0.39, -13.63, 3.74, 2.62, 12.51, repro,
2006-10-22,-0.20, 1.32, -6.66, 2.80, 2.01, 9.23, repro,
2006-10-23,0.73, 0.44, -10.18, 2.74, 2.02, 9.19, repro,
2006-10-24,-0.75, 0.39, -5.84, 2.99, 2.04, 9.54, repro,
2006-10-25,0.62, 0.15, -2.09, 2.44, 1.70, 7.74, repro,
2006-10-26,1.55, 0.32, -3.86, 2.26, 1.65, 7.38, repro,
2006-10-27,0.50, 1.11, -6.79, 2.28, 1.68, 7.39, repro,
2006-10-28,0.63, 0.52, -5.51, 2.37, 1.68, 7.65, repro,
2006-10-29,0.82, 1.35, 1.65, 2.21, 1.59, 7.22, repro,
2006-10-30,0.12, 1.26, -2.50, 2.18, 1.56, 6.99, repro,
2006-10-31,1.71, 0.76, -5.69, 2.25, 1.64, 7.35, repro,
2006-11-01,1.24, 1.36, -4.22, 2.55, 1.85, 8.25, repro,
2006-11-02,0.93, 1.04, -4.35, 2.23, 1.60, 7.26, repro,
2006-11-03,1.76, 0.93, -2.24, 2.31, 1.70, 7.59, repro,
2006-11-04,2.23, 1.65, -4.09, 2.35, 1.70, 7.56, repro,
2006-11-05,0.13, 1.14, 0.65, 2.33, 1.65, 7.44, repro,
2006-11-06,1.01, -0.32, -4.55, 2.18, 1.57, 7.06, repro,
2006-11-07,1.71, 0.79, 1.34, 2.42, 1.72, 7.65, repro,
2006-11-08,-0.25, 0.15, -2.36, 2.33, 1.64, 7.35, repro,
2006-11-09,1.75, 0.39, 1.68, 2.38, 1.70, 7.51, repro,
2006-11-10,1.91, 0.44, -6.14, 2.29, 1.60, 7.20, repro,
2006-11-11,2.31, 0.02, -4.09, 2.31, 1.63, 7.23, repro,
2006-11-12,1.12, 0.83, -3.96, 2.40, 1.70, 7.53, repro,
2006-11-13,2.52, 1.07, 7.40, 2.34, 1.65, 7.34, repro,
2006-11-14,1.27, 0.76, 3.04, 2.20, 1.55, 7.02, repro,
2006-11-15,0.56, 0.81, -1.05, 2.19, 1.56, 7.06, repro,
2006-11-16,-0.02, 0.91, 1.39, 2.18, 1.56, 7.04, repro,
2006-11-17,0.46, 0.64, -6.05, 2.17, 1.55, 6.97, repro,
2006-11-18,1.09, 0.41, -6.76, 2.18, 1.56, 7.09, repro,
2006-11-19,1.67, 1.42, -9.86, 2.16, 1.56, 7.00, repro,
2006-11-20,1.85, 1.45, -5.66, 2.18, 1.55, 7.01, repro,
2006-11-21,1.24, 0.96, -5.51, 2.18, 1.57, 7.05, repro,
2006-11-22,1.96, 0.03, -4.61, 2.17, 1.57, 7.01, repro,
2006-11-23,1.50, 0.83, -6.71, 2.19, 1.60, 7.12, repro,
2006-11-24,0.25, -0.58, -9.72, 2.20, 1.61, 7.16, repro,
2006-11-25,1.72, -0.16, -7.76, 2.17, 1.56, 6.97, repro,
2006-11-26,1.77, 1.10, -5.06, 2.19, 1.57, 7.04, repro,
2006-11-27,3.28, 1.20, -2.23, 2.23, 1.58, 7.09, repro,
2006-11-28,0.93, 0.98, -5.98, 2.18, 1.57, 7.02, repro,
2006-11-29,1.27, 0.48, -14.16, 2.16, 1.56, 6.96, repro,
2006-11-30,2.09, 0.92, -12.90, 2.17, 1.56, 6.97, repro,
2006-12-01,0.51, 0.55, -16.02, 2.17, 1.56, 6.99, repro,
2006-12-02,0.41, 0.32, -18.51, 2.20, 1.57, 7.07, repro,
2006-12-03,-0.50, 0.60, -15.32, 2.25, 1.59, 7.15, repro,
2006-12-04,0.66, 0.28, -19.43, 2.22, 1.58, 7.06, repro,
2006-12-05,1.02, 0.68, -12.91, 2.25, 1.66, 7.30, repro,
2006-12-06,0.85, 0.80, -14.56, 2.34, 1.71, 7.61, repro,
2006-12-07,-0.00, 1.31, -12.22, 2.27, 1.63, 7.32, repro,
2006-12-08,0.27, 0.75, -8.78, 2.25, 1.62, 7.31, repro,
2006-12-09,0.93, 0.61, -6.38, 2.37, 1.74, 7.78, repro,
2006-12-10,1.15, 0.27, -4.86, 2.24, 1.63, 7.25, repro,
2006-12-11,1.08, -0.02, -7.80, 2.18, 1.57, 6.99, repro,